Location: Perryvale
(54.4667°N, 113.3833°W)
Time: 19:30:12
(UTC+00:00)

Transit 2A - Pass Details

Date: 27 May 2024
Orbit: 592 x 959 km, 66.7° (Epoch: 19 June)

Event Time Altitude Azimuth Distance (km) Brightness Sun altitude
Rises 08:42:43 0° 284° (WNW) 3,136 9.1 -12.6°
Reaches altitude 10° 08:45:26 10° 298° (WNW) 2,281 8.6 -12.5°
Maximum altitude 08:49:40 24° 352° (N) 1,617 8.5 -12.3°
Drops below altitude 10° 08:54:14 10° 45° (NE) 2,486 9.7 -12.0°
Sets 08:57:20 0° 59° (ENE) 3,487 10.3 -11.9°
